Regional Weather Roundup
Issued by NWS

Home | Current Version | Previous Version | Text Only | Print | Product List | Glossary On
Versions: 1 2 3 4 5 6 7 8 9 10 11 12 13 14 15 16 17 18 19 20 21 22 23 24 25 26 27 28 29 30 31 32 33 34 35 36 37 38 39 40 41 42 43 44 45 46 47 48 49 50
000
ASHW40 PHFO 110512
RWRHI

WEATHER ROUNDUP FOR HAWAII
NATIONAL WEATHER SERVICE HONOLULU HI
700 PM HST SUN DEC 10 2017

THIS IS AN AUTOMATED REPORT THAT HAS NOT BEEN QUALITY CONTROLLED.

NOTE..."FAIR" INDICATES FEW OR NO CLOUDS BELOW 12,000 FEET WITH NO
SIGNIFICANT WEATHER AND/OR OBSTRUCTIONS TO VISIBILITY.

* - THESE SITES REPORT LIMITED FIELDS
# - BUOY DATA PROVIDED BY PACIFIC ISLANDS OCEAN OBSERVING SYSTEM.

HIZ001>004-110600-
KAUAI-NIIHAU-

CITY           SKY/WX    TMP DP  RH WIND       PRES   REMARKS
LIHUE APT      PTCLDY    67  63  87 CALM      29.98R
PORT ALLEN*      N/A     72 N/A N/A E8          N/A
POIPU*           N/A     70 N/A N/A N2          N/A
PRINCEVILLE*   NOT AVBL
KOKOLE POINT*  NOT AVBL
MOLOAA DAIRY*    N/A     66  63  88 SE1         N/A
WAIMEA HTS*    NOT AVBL
PUU OPAE*      NOT AVBL
PUU LUA*       NOT AVBL
MAKAHA RIDGE*  NOT AVBL
$$

HIZ005>011-110600-
OAHU-

CITY           SKY/WX    TMP DP  RH WIND       PRES   REMARKS
HONOLULU       MOCLDY    76  65  68 E8        29.97R
KALAELOA       CLOUDY    73  69  87 SE5       29.98R
KANEOHE MCB    LGT RAIN  72  69  90 E3        29.95S
WHEELER FIELD  MOCLDY    70  66  88 CALM      30.00R
BELLOWS*       NOT AVBL
KAHUKU*        NOT AVBL
WHEELER*       NOT AVBL
WAIANAE HARBOR NOT AVBL
DILLINGHAM*    NOT AVBL
KAHUKU TRN*      N/A     68  66  94 NW1         N/A
KAWAILOA*        N/A     66  63  88 NE7         N/A
KII*             N/A     73  66  78 E10         N/A
MAKUA RANGE*     N/A     70  59  68 N3G9        N/A
OAHU FOREST NW NOT AVBL
SCHOFIELD BRK*   N/A     75  72  88 MISG        N/A
SCHOFIELD S*   NOT AVBL
WAIANAE VLY*   NOT AVBL
KUAOKALA*      NOT AVBL
HONOULIUULI*   NOT AVBL
MOKUOLOE IS*   NOT AVBL
PALEHUA*       NOT AVBL
WAIAWA PHB*    NOT AVBL
$$

HIZ012>013-110600-
MOLOKAI-

CITY           SKY/WX    TMP DP  RH WIND       PRES   REMARKS
MOLOKAI AIRPT  MOCLDY    70  69  97 N5        29.98R
KALAUPAPA      NOT AVBL
MAKAPULAPAI*   NOT AVBL
MOLOKAI 1*     NOT AVBL
PUU ALII*      NOT AVBL
$$

HIZ016-110600-
KAHOOLAWE-

CITY           SKY/WX    TMP DP  RH WIND       PRES   REMARKS
KAHOOLAWE*     NOT AVBL
HAKIOAWA*      NOT AVBL
HONOKANAIA*    NOT AVBL
KANELOA*         N/A     72  64  78 E9G18     30.02R
KEALIALALO*    NOT AVBL
LUA MAKIKA*    NOT AVBL
$$

HIZ014>015-110600-
LANAI-

CITY           SKY/WX    TMP DP  RH WIND       PRES   REMARKS
LANAI CITY     CLOUDY    68  66  93 E3        30.02R
LANAI 1*       NOT AVBL
$$

HIZ017>028-110600-
MAUI-

CITY           SKY/WX    TMP DP  RH WIND       PRES   REMARKS
KAHULUI        PTCLDY    71  69  93 S3        29.96R
KAPALUA-W MAUI NOT AVBL
HANA AIRPORT     N/A     70  70 100 E1        30.01R
HANA*            N/A     72 N/A N/A SE5         N/A
HALEAKALA SUMM   N/A     43   7  22 SE9         N/A
MAALAEA BAY*   NOT AVBL
HALEAKALA*     NOT AVBL
KAUPO GAP*     NOT AVBL
KULA 1*          N/A     46  46 100 E3          N/A
$$

HIZ023>026-110600-
BIG ISLAND OF HAWAII COAST AND LOWER SLOPES-

CITY           SKY/WX    TMP DP  RH WIND       PRES   REMARKS
KAILUA KONA    MOCLDY    76  63  64 S7        29.95R
HILO           PTCLDY    69  65  86 SW5       29.97S
HONOKAA*         N/A     64 N/A N/A VRB1        N/A
KAWAIHAE MWT*    N/A     77 N/A N/A SW5         N/A
KAWAIHAE*      NOT AVBL
SOUTH POINT*     N/A     70 N/A N/A N9          N/A
UPOLU AIRPORT* NOT AVBL
KAMUELA*       CLOUDY    63  63 100 CALM      30.07R
HAKALAU*         N/A     45  41  87 W5          N/A
KALOKO-HONOKO* NOT AVBL
PALI 2*          N/A     61  61 100 NE2         N/A
KEALAKOMO*       N/A     73  64  73 NE8         N/A
KAUPULEHU*     NOT AVBL
KAPAPALA*        N/A     65  64  95 CALM        N/A
LOWER KAHUKU*  NOT AVBL
PUHE CS*       NOT AVBL
PUHO CS*       NOT AVBL
PTA KEAMUKU*     N/A     61  59  94 SW3         N/A
WAIKOLOA*      NOT AVBL
$$

HIZ027>028-110600-
BIG ISLAND OF HAWAII INTERIOR AND SUMMMITS-

CITY           SKY/WX    TMP DP  RH WIND       PRES   REMARKS
BRADSHAW FIELD CLOUDY    49  44  81 CALM      30.26R
MK VISITOR CEN   N/A     46  34  61 CALM        N/A
MAUNA KEA*       N/A     37  -9  13 SW9         N/A
MAUNA LOA*     NOT AVBL
MAUNA LOA 1*   NOT AVBL
PTA KIPUKA*      N/A     54  52  94 W1G7        N/A
PTA RANGE 17*    N/A     64  61  88 W2          N/A
PTA WEST*      NOT AVBL
NENE CABIN*    NOT AVBL
AHUMOA*        NOT AVBL
PTA PORTABLE*  NOT AVBL
PUU MALI*        N/A     54  39  58 E3G9        N/A
$$

HIC003-110600-
NORTHWEST ISLANDS-

CITY           SKY/WX    TMP DP  RH WIND       PRES   REMARKS
MIDWAY ISLAND  CLOUDY    66  59  77 N12       30.04R
MIDWAY NOS*    NOT AVBL
FRENCH FRIGATE NOT AVBL
$$

PHZ110>124-180-110600-
BUOY REPORTS

STATION/POSITION TIME  TEMP    WIND        PRES    WAVE   SWELL
                       AIR SEA DIR/SP/G            HT/PER HT/DIR
                 (UTC) (F)     (DEG/KT/KT) (MB)    (FT/S) (FT/D)
BUOY 51001       0450   71 75  200/ 10/ 17 1014.4R  11/13  11
BUOY 51101       0450   71 75  210/ 12/ 14 1014.9R  11/13  11/320
BUOY 51100       NOT AVBL
BUOY 51002       0450   77 79   60/ 14/ 17 1013.6R   6/15   5/360
BUOY 51003       0450   76 78   80/  8/ 10 1013.8R   9/14  10/330
BUOY 51004       0450   76 79   50/ 12/ 16 1015.0R   7/15   7/340
WAIMEA BAY#      0432      75                N/A    11/14   8/340
MOKAPU POINT#    0434      77                N/A     9/13   7/350
LANAI#           NOT AVBL
BARBERS PT 2#    NOT AVBL
PAUWELA#         0430      78                N/A    11/14  10/330
HILO#            0457      77                N/A    13/13  11/340
KANEOHE BAY#     NOT AVBL
KANEOHE BAY 2#   NOT AVBL
HANALEI#         0452      76                N/A    10/14   8/340
KAHULUI HARBOR   0436   74 77  300/  5/  9 1014.3R
HONOLULU HARBOR  0448   74 78  100/  1/  3 1015.5R
PEARL HARBOR#    0400      78                N/A     2/ 5
KILO NALU        NOT AVBL
HILO HARBOR      0448   73 77  220/  5/  6 1014.5F
MOKUOLOE         0436   71 76   70/  5/  9 1015.1R
NAWILIWILI       0448   71     240/  4/  5 1015.0R
WHOTS BUOY       NOT AVBL
BUOY 51028       NOT AVBL
$$

......................KEY........................................
  SKY/WX - SKY CONDITIONS/PRESENT WEATHER
  TMP    - TEMPERATURE IN FAHRENHEIT
  DWPT   - DEWPOINT IN FAHRENHEIT
  RH     - RELATIVE HUMIDITY IN PERCENT
  WIND   - DIRECTION AND SPEED /MPH FOR ISLANDS...KTS FOR BUOYS/
  PRES   - MEAN SEA LEVEL PRESSURE IN INCHES OF HG
  VSB    - VISIBILITY IN MILES
  HX     - HEAT INDEX
  WCI    - WIND CHILL INDEX
  VRB    - VARIABLE WIND DIRECTION
  N/A    - NOT AVAILABLE



USA.gov is the U.S. government's official web portal to all federal, state and local government web resources and services.